| time (UTC) | temp F | wind direction | speed MPH | gust MPH | rain 1hr in | rain 24hr in | rain mn in | humidity % | barometer mb |
| 20260906092500 | 58 | 259 | 1.0 | 2.0 | 0.00 | 0.00 | 0.00 | 84 | 1013.2 |
| 20260906091420 | 58 | 0.0 | 0.0 | 0.00 | 0.00 | 0.00 | 84 | 1012.8 | |
| 20260906090421 | 58 | 0.0 | 0.0 | 0.00 | 0.00 | 0.00 | 85 | 1013.0 | |
| 20260906085420 | 59 | 0 | 0.0 | 0.0 | 0.00 | 0.00 | 0.00 | 85 | 1013.1 |
| 20260906084441 | 59 | 0 | 0.0 | 0.0 | 0.00 | 0.00 | 0.00 | 85 | 1013.1 |
| 20260906083421 | 59 | 0.0 | 0.0 | 0.00 | 0.00 | 0.00 | 85 | 1013.2 | |
| 20260906082441 | 59 | 0.0 | 0.0 | 0.00 | 0.00 | 0.00 | 85 | 1013.1 | |
| 20260906081441 | 60 | 0 | 0.0 | 0.0 | 0.00 | 0.00 | 0.00 | 84 | 1013.2 |
| 20260906080421 | 60 | 0.0 | 0.0 | 0.00 | 0.00 | 0.00 | 83 | 1013.2 | |
| 20260906075421 | 60 | 178 | 0.0 | 0.0 | 0.00 | 0.00 | 0.00 | 84 | 1013.0 |
| 20260906074502 | 60 | 0.0 | 0.0 | 0.00 | 0.00 | 0.00 | 83 | 1013.2 | |
| 20260906073422 | 60 | 0.0 | 0.0 | 0.00 | 0.00 | 0.00 | 81 | 1013.3 | |
| 20260906072422 | 61 | 111 | 2.0 | 3.0 | 0.00 | 0.00 | 0.00 | 80 | 1013.1 |
| 20260906071422 | 62 | 0.0 | 0.0 | 0.00 | 0.00 | 0.00 | 79 | 1013.3 | |
| 20260906070422 | 62 | 0.0 | 0.0 | 0.00 | 0.00 | 0.00 | 79 | 1013.2 | |
| 20260906065443 | 62 | 0.0 | 0.0 | 0.00 | 0.00 | 0.00 | 78 | 1013.1 | |
| 20260906064423 | 63 | 0.0 | 0.0 | 0.00 | 0.00 | 0.00 | 77 | 1013.6 | |
| 20260906063423 | 63 | 0.0 | 0.0 | 0.00 | 0.00 | 0.00 | 77 | 1012.6 | |
| 20260906062423 | 64 | 0 | 0.0 | 0.0 | 0.00 | 0.00 | 0.00 | 77 | 1013.6 |
| 20260906061423 | 64 | 0.0 | 0.0 | 0.00 | 0.00 | 0.00 | 77 | 1013.6 | |
| 20260906060444 | 65 | 0.0 | 0.0 | 0.00 | 0.00 | 0.00 | 74 | 1013.6 | |
| 20260906055424 | 65 | 0.0 | 0.0 | 0.00 | 0.00 | 0.00 | 75 | 1013.3 | |
| 20260906054424 | 65 | 0.0 | 0.0 | 0.00 | 0.00 | 0.00 | 75 | 1013.7 | |
| 20260906053424 | 65 | 0.0 | 0.0 | 0.00 | 0.00 | 0.00 | 73 | 1013.7 | |
| 20260906052424 | 66 | 0.0 | 0.0 | 0.00 | 0.00 | 0.00 | 73 | 1014.0 | |
| 20260906051424 | 66 | 0.0 | 0.0 | 0.00 | 0.00 | 0.00 | 70 | 1014.1 | |
| 20260906050425 | 66 | 261 | 2.0 | 3.0 | 0.00 | 0.00 | 0.00 | 70 | 1014.6 |
| 20260906045424 | 66 | 0.0 | 0.0 | 0.00 | 0.00 | 0.00 | 73 | 1014.0 | |
| 20260906044425 | 66 | 0.0 | 0.0 | 0.00 | 0.00 | 0.00 | 72 | 1014.4 | |
| 20260906043425 | 66 | 0.0 | 0.0 | 0.00 | 0.00 | 0.00 | 72 | 1014.3 | |
| 20260906042425 | 66 | 0.0 | 0.0 | 0.00 | 0.00 | 0.00 | 72 | 1014.0 | |
| 20260906041445 | 66 | 285 | 0.0 | 1.0 | 0.00 | 0.00 | 0.00 | 70 | 1013.7 |
| 20260906040426 | 67 | 0.0 | 0.0 | 0.00 | 0.00 | 0.00 | 72 | 1013.9 | |
| 20260906035426 | 67 | 0.0 | 0.0 | 0.00 | 0.00 | 0.00 | 70 | 1014.0 | |
| 20260906034426 | 68 | 0.0 | 0.0 | 0.00 | 0.00 | 0.00 | 69 | 1014.0 | |
| 20260906033426 | 68 | 0.0 | 0.0 | 0.00 | 0.00 | 0.00 | 68 | 1014.0 | |
| 20260906032426 | 69 | 0.0 | 0.0 | 0.00 | 0.00 | 0.00 | 68 | 1013.8 | |
| 20260906031426 | 69 | 0.0 | 0.0 | 0.00 | 0.00 | 0.00 | 67 | 1013.8 | |
| 20260906030426 | 70 | 0.0 | 0.0 | 0.00 | 0.00 | 0.00 | 67 | 1013.8 | |
| 20260906025426 | 71 | 0.0 | 0.0 | 0.00 | 0.00 | 0.00 | 64 | 1013.7 | |
| 20260906024427 | 72 | 0.0 | 0.0 | 0.00 | 0.00 | 0.00 | 64 | 1013.6 | |
| 20260906023508 | 72 | 0.0 | 0.0 | 0.00 | 0.00 | 0.00 | 63 | 1013.6 | |
| 20260906022447 | 73 | 0.0 | 0.0 | 0.00 | 0.00 | 0.00 | 63 | 1013.6 | |
| 20260906021427 | 74 | 0.0 | 0.0 | 0.00 | 0.00 | 0.00 | 62 | 1013.6 | |
| 20260906020428 | 75 | 0.0 | 0.0 | 0.00 | 0.00 | 0.00 | 60 | 1013.6 | |
| 20260906015428 | 75 | 39 | 0.0 | 0.0 | 0.00 | 0.00 | 0.00 | 60 | 1013.6 |
| 20260906014428 | 76 | 0.0 | 0.0 | 0.00 | 0.00 | 0.00 | 59 | 1013.6 | |
| 20260906013428 | 77 | 0.0 | 0.0 | 0.00 | 0.00 | 0.00 | 59 | 1013.6 | |
| 20260906012428 | 77 | 0.0 | 0.0 | 0.00 | 0.00 | 0.00 | 57 | 1013.6 | |
| 20260906011429 | 77 | 0.0 | 0.0 | 0.00 | 0.00 | 0.00 | 57 | 1013.6 | |
| 20260906010449 | 77 | 307 | 1.0 | 1.0 | 0.00 | 0.00 | 0.00 | 55 | 1013.7 |
| 20260906005509 | 77 | 0.0 | 0.0 | 0.00 | 0.00 | 0.00 | 55 | 1013.7 | |
| 20260906004449 | 77 | 302 | 0.0 | 1.0 | 0.00 | 0.00 | 0.00 | 55 | 1013.8 |
| 20260906003429 | 77 | 0 | 0.0 | 0.0 | 0.00 | 0.00 | 0.00 | 57 | 1013.8 |
| 20260906002429 | 77 | 354 | 0.0 | 1.0 | 0.00 | 0.00 | 0.00 | 57 | 1013.7 |
| 20260906001430 | 77 | 0.0 | 0.0 | 0.00 | 0.00 | 0.00 | 57 | 1013.8 | |
| 20260906000430 | 77 | 314 | 1.0 | 2.0 | 0.00 | 0.00 | 0.00 | 58 | 1013.8 |
| 20260905235450 | 78 | 0.0 | 0.0 | 0.00 | 0.00 | 0.00 | 58 | 1013.9 | |
| 20260905234430 | 78 | 0 | 0.0 | 0.0 | 0.00 | 0.00 | 0.00 | 58 | 1013.8 |
| 20260905233430 | 78 | 0.0 | 0.0 | 0.00 | 0.00 | 0.00 | 58 | 1013.9 | |
| 20260905232430 | 78 | 0 | 0.0 | 0.0 | 0.00 | 0.00 | 0.00 | 58 | 1013.9 |
| 20260905231431 | 78 | 301 | 1.0 | 2.0 | 0.00 | 0.00 | 0.00 | 57 | 1013.9 |
| 20260905230511 | 77 | 73 | 1.0 | 2.0 | 0.00 | 0.00 | 0.00 | 57 | 1013.9 |
| 20260905225416 | 77 | 0.0 | 0.0 | 0.00 | 0.00 | 0.00 | 58 | 1014.3 | |
| 20260905224416 | 77 | 267 | 0.0 | 1.0 | 0.00 | 0.00 | 0.00 | 58 | 1014.3 |
| 20260905223416 | 77 | 0.0 | 0.0 | 0.00 | 0.00 | 0.00 | 58 | 1014.4 | |
| 20260905222431 | 77 | 0.0 | 0.0 | 0.00 | 0.00 | 0.00 | 59 | 1014.6 | |
| 20260905221451 | 77 | 0.0 | 0.0 | 0.00 | 0.00 | 0.00 | 60 | 1014.7 | |
| 20260905220417 | 76 | 239 | 0.0 | 1.0 | 0.00 | 0.00 | 0.00 | 60 | 1014.7 |
| 20260905215437 | 76 | 294 | 1.0 | 2.0 | 0.00 | 0.00 | 0.00 | 60 | 1014.9 |
| 20260905214417 | 76 | 0 | 0.0 | 0.0 | 0.00 | 0.00 | 0.00 | 60 | 1015.1 |
| 20260905213432 | 76 | 0.0 | 0.0 | 0.00 | 0.00 | 0.00 | 63 | 1015.2 | |
| 20260905212433 | 75 | 281 | 1.0 | 2.0 | 0.00 | 0.00 | 0.00 | 62 | 1015.2 |
| 20260905211513 | 74 | 0.0 | 0.0 | 0.00 | 0.00 | 0.00 | 65 | 1015.4 | |
| 20260905210418 | 73 | 275 | 2.0 | 3.0 | 0.00 | 0.02 | 0.00 | 64 | 1015.7 |
| 20260905205418 | 73 | 271 | 1.0 | 2.0 | 0.00 | 0.03 | 0.00 | 65 | 1015.8 |
| 20260905204418 | 73 | 0 | 0.0 | 0.0 | 0.00 | 0.03 | 0.00 | 67 | 1015.9 |
| 20260905203438 | 72 | 0 | 0.0 | 0.0 | 0.00 | 0.04 | 0.00 | 67 | 1015.9 |
| 20260905202438 | 71 | 0.0 | 0.0 | 0.00 | 0.04 | 0.00 | 70 | 1016.0 | |
| 20260905201419 | 70 | 141 | 0.0 | 1.0 | 0.00 | 0.05 | 0.00 | 68 | 1016.0 |
| 20260905200419 | 70 | 125 | 0.0 | 2.0 | 0.00 | 0.06 | 0.00 | 70 | 1016.1 |
| 20260905195419 | 69 | 91 | 1.0 | 1.0 | 0.00 | 0.06 | 0.00 | 72 | 1016.3 |
| 20260905194420 | 68 | 0 | 0.0 | 0.0 | 0.00 | 0.06 | 0.00 | 74 | 1016.5 |
| 20260905193419 | 68 | 0 | 0.0 | 0.0 | 0.00 | 0.07 | 0.00 | 75 | 1016.6 |
| 20260905192419 | 67 | 0 | 0.0 | 0.0 | 0.00 | 0.09 | 0.00 | 77 | 1016.6 |
| 20260905191420 | 66 | 252 | 2.0 | 2.0 | 0.00 | 0.11 | 0.00 | 79 | 1016.7 |
| 20260905190420 | 66 | 0.0 | 0.0 | 0.00 | 0.12 | 0.00 | 80 | 1017.0 | |
| 20260905185420 | 65 | 0.0 | 0.0 | 0.00 | 0.13 | 0.00 | 80 | 1017.1 | |
| 20260905184420 | 64 | 0.0 | 0.0 | 0.00 | 0.14 | 0.00 | 81 | 1017.1 | |
| 20260905183421 | 64 | 267 | 2.0 | 3.0 | 0.00 | 0.14 | 0.00 | 83 | 1017.3 |
| 20260905182420 | 63 | 0.0 | 0.0 | 0.00 | 0.14 | 0.00 | 84 | 1017.3 | |
| 20260905181421 | 62 | 253 | 1.0 | 2.0 | 0.00 | 0.14 | 0.00 | 86 | 1017.6 |
| 20260905180421 | 61 | 181 | 0.0 | 0.0 | 0.00 | 0.14 | 0.00 | 86 | 1017.6 |
| 20260905175501 | 60 | 249 | 1.0 | 3.0 | 0.00 | 0.14 | 0.00 | 86 | 1017.6 |
| 20260905174421 | 60 | 0.0 | 0.0 | 0.00 | 0.14 | 0.00 | 89 | 1017.7 | |
| 20260905173421 | 59 | 0.0 | 0.0 | 0.00 | 0.14 | 0.00 | 89 | 1017.8 | |
| 20260905172421 | 58 | 315 | 0.0 | 1.0 | 0.00 | 0.15 | 0.00 | 90 | 1017.7 |
| 20260905171422 | 58 | 0 | 0.0 | 0.0 | 0.00 | 0.15 | 0.00 | 91 | 1017.7 |
| 20260905170422 | 57 | 268 | 1.0 | 2.0 | 0.00 | 0.15 | 0.00 | 93 | 1017.7 |
| 20260905165422 | 57 | 235 | 2.0 | 3.0 | 0.00 | 0.15 | 0.00 | 93 | 1017.7 |
| 20260905164422 | 56 | 247 | 2.0 | 2.0 | 0.00 | 0.15 | 0.00 | 93 | 1017.8 |
| 20260905163442 | 56 | 0.0 | 0.0 | 0.00 | 0.15 | 0.00 | 94 | 1017.7 | |
| 20260905162443 | 55 | 0.0 | 0.0 | 0.00 | 0.15 | 0.00 | 95 | 1017.8 | |
| 20260905161423 | 54 | 253 | 2.0 | 2.0 | 0.00 | 0.15 | 0.00 | 96 | 1017.6 |
| 20260905160443 | 54 | 0.0 | 0.0 | 0.00 | 0.15 | 0.00 | 98 | 1017.7 | |
| 20260905155423 | 54 | 0.0 | 0.0 | 0.00 | 0.15 | 0.00 | 98 | 1017.8 | |
| 20260905154444 | 53 | 249 | 1.0 | 2.0 | 0.00 | 0.15 | 0.00 | 99 | 1017.7 |
| 20260905153423 | 53 | 60 | 0.0 | 1.0 | 0.00 | 0.15 | 0.00 | 99 | 1017.7 |
| 20260905152424 | 52 | 262 | 0.0 | 1.0 | 0.00 | 0.15 | 0.00 | 99 | 1017.6 |
| 20260905151424 | 51 | 0.0 | 0.0 | 0.00 | 0.15 | 0.00 | 99 | 1017.7 | |
| 20260905150424 | 51 | 0.0 | 0.0 | 0.00 | 0.15 | 0.00 | 99 | 1017.8 | |
| 20260905145444 | 51 | 0.0 | 0.0 | 0.00 | 0.15 | 0.00 | 99 | 1017.9 | |
| 20260905144424 | 50 | 84 | 0.0 | 1.0 | 0.00 | 0.15 | 0.00 | 99 | 1017.8 |
| 20260905143444 | 50 | 0.0 | 0.0 | 0.00 | 0.15 | 0.00 | 99 | 1017.7 | |
| 20260905142424 | 49 | 0.0 | 0.0 | 0.00 | 0.15 | 0.00 | 99 | 1017.7 | |
| 20260905141425 | 49 | 105 | 1.0 | 1.0 | 0.00 | 0.15 | 0.00 | 99 | 1017.7 |
| 20260905140425 | 49 | 193 | 1.0 | 1.0 | 0.00 | 0.15 | 0.00 | 99 | 1017.6 |
| 20260905135426 | 49 | 201 | 1.0 | 1.0 | 0.00 | 0.15 | 0.00 | 99 | 1017.7 |
| 20260905134426 | 49 | 197 | 1.0 | 1.0 | 0.00 | 0.15 | 0.00 | 99 | 1017.6 |
| 20260905133426 | 49 | 201 | 1.0 | 1.0 | 0.00 | 0.15 | 0.00 | 99 | 1017.5 |
| 20260905132426 | 49 | 198 | 1.0 | 1.0 | 0.00 | 0.15 | 0.00 | 99 | 1017.4 |
| 20260905131426 | 50 | 198 | 1.0 | 1.0 | 0.00 | 0.15 | 0.00 | 99 | 1017.3 |
| 20260905130426 | 50 | 76 | 1.0 | 1.0 | 0.00 | 0.15 | 0.00 | 99 | 1017.3 |
| 20260905125427 | 50 | 51 | 1.0 | 2.0 | 0.00 | 0.15 | 0.00 | 99 | 1017.2 |
| 20260905124447 | 50 | 48 | 1.0 | 1.0 | 0.00 | 0.15 | 0.00 | 99 | 1017.0 |
| 20260905123426 | 50 | 197 | 1.0 | 1.0 | 0.00 | 0.15 | 0.00 | 99 | 1017.0 |
| 20260905122427 | 51 | 176 | 1.0 | 2.0 | 0.00 | 0.15 | 0.00 | 99 | 1016.9 |
| 20260905121427 | 51 | 199 | 1.0 | 1.0 | 0.00 | 0.15 | 0.00 | 99 | 1016.9 |
| 20260905120427 | 51 | 184 | 1.0 | 1.0 | 0.00 | 0.15 | 0.00 | 99 | 1017.0 |
| 20260905115427 | 51 | 0.0 | 0.0 | 0.00 | 0.15 | 0.00 | 99 | 1016.9 | |
| 20260905114428 | 51 | 0.0 | 0.0 | 0.00 | 0.15 | 0.00 | 99 | 1016.9 | |
| 20260905113447 | 51 | 0.0 | 0.0 | 0.00 | 0.15 | 0.00 | 99 | 1016.9 | |
| 20260905112428 | 51 | 0.0 | 0.0 | 0.00 | 0.15 | 0.00 | 99 | 1017.0 | |
| 20260905111428 | 51 | 0.0 | 0.0 | 0.00 | 0.15 | 0.00 | 99 | 1016.9 | |
| 20260905110428 | 51 | 0.0 | 0.0 | 0.00 | 0.15 | 0.00 | 99 | 1016.7 | |
| 20260905105428 | 52 | 217 | 0.0 | 0.0 | 0.00 | 0.15 | 0.00 | 99 | 1016.6 |
| 20260905104428 | 52 | 91 | 1.0 | 1.0 | 0.00 | 0.15 | 0.00 | 99 | 1016.6 |
| 20260905103449 | 52 | 120 | 1.0 | 1.0 | 0.00 | 0.15 | 0.00 | 99 | 1016.7 |
| 20260905102429 | 52 | 0.0 | 0.0 | 0.00 | 0.15 | 0.00 | 99 | 1016.6 | |
| 20260905101509 | 52 | 0.0 | 0.0 | 0.00 | 0.15 | 0.00 | 99 | 1016.7 | |
| 20260905100429 | 53 | 0.0 | 0.0 | 0.00 | 0.15 | 0.00 | 99 | 1016.5 | |
| 20260905095449 | 53 | 0.0 | 0.0 | 0.00 | 0.15 | 0.00 | 99 | 1016.6 | |
| 20260905094429 | 53 | 0.0 | 0.0 | 0.00 | 0.15 | 0.00 | 99 | 1016.5 | |
| 20260905093450 | 54 | 0.0 | 0.0 | 0.00 | 0.15 | 0.00 | 99 | 1016.5 |